Hourly Data Report for November 05, 2019

All times are specified in Local Standard Time (LST). Add 1 hour to adjust for Daylight Saving Time where and when it is observed.

PINAWA
MANITOBA
Current Station Operator: ECCC - MSC

50°10'38.020" N
96°03'53.000" W
268.00 m
503B1ER
71448
WEA

Download Data

Hourly Data (November 2019)
Hourly Data Report for November 5, 2019
TIME Temp Definition
°C
Dew Point Definition
°C
Rel Hum Definition
%
Wind Dir Definition
10's deg

Wind Spd Definition
km/h
Visibility Definition
km
Stn Press Definition
kPa
Hmdx Definition


Wind Chill Definition


Weather Definition


00:00 -8.4 LegendMM LegendMM 27 11   98.82   -14 LegendNANA
01:00 -8.9 LegendMM LegendMM 28 12   98.84   -15 LegendNANA
02:00 -9.3 LegendMM LegendMM 27 10   98.83   -14 LegendNANA
03:00 -9.3 LegendMM LegendMM 29 10   98.86   -14 LegendNANA
04:00 -8.8 LegendMM LegendMM 30 11   98.89   -14 LegendNANA
05:00 -9.4 LegendMM LegendMM 27 8   98.94   -14 LegendNANA
06:00 -9.6 LegendMM LegendMM 28 13   98.95   -16 LegendNANA
07:00 -9.6 LegendMM LegendMM 27 10   98.96   -15 LegendNANA
08:00 -9.2 LegendMM LegendMM 28 11   99.01   -15 LegendNANA
09:00 -8.9 LegendMM LegendMM 27 9   99.03   -14 LegendNANA
10:00 -8.2 LegendMM LegendMM 27 12   99.02   -14 LegendNANA
11:00 -7.8 LegendMM LegendMM 27 11   99.04   -13 LegendNANA
12:00 -7.2 LegendMM LegendMM 29 17   99.04   -14 LegendNANA
13:00 -7.0 LegendMM LegendMM 29 15   99.01   -13 LegendNANA
14:00 -6.9 LegendMM LegendMM 28 13   99.01   -12 LegendNANA
15:00 -7.1 LegendMM LegendMM 30 16   99.02   -13 LegendNANA
16:00 -7.2 LegendMM LegendMM 28 11   99.00   -12 LegendNANA
17:00 -7.4 LegendMM LegendMM 29 10   99.02   -12 LegendNANA
18:00 -7.4 LegendMM LegendMM 25 6   99.05   -11 LegendNANA
19:00 -7.6 LegendMM LegendMM 25 8   99.05   -12 LegendNANA
20:00 -7.8 LegendMM LegendMM 26 7   99.05   -11 LegendNANA
21:00 -8.1 LegendMM LegendMM 27 7   99.04   -12 LegendNANA
22:00 -8.6 LegendMM LegendMM 25 7   99.06   -12 LegendNANA
23:00 -9.1 LegendMM LegendMM 26 8   99.08   -13 LegendNANA

Notes on Data Quality.

Legend

  • E = Estimated
  • M = Missing
  • NA = Not Available
Date modified: